Location: Newark
(13.6797°N, 8.5297°E)
Time: 20:20:20
(UTC+00:00)

Courier 1B Rocket - Pass Details

Date: 24 January 2020
Orbit: 920 x 1202 km, 28.2° (Epoch: 22 February)

Event Time Altitude Azimuth Distance (km) Brightness Sun altitude
Rises 19:26:21 0° 274° (W) 3,544 9.0 -29.7°
Reaches altitude 10° 19:29:32 10° 259° (W) 2,603 8.1 -30.5°
Maximum altitude 19:34:11 22° 211° (SSW) 1,917 6.9 -31.6°
Enters shadow 19:37:56 13° 169° (S) 2,418 7.1 -32.4°
